[[{"header":{"parameterUnit":"m.s-1","parameterCategory":1,"la1":30.2991,"la2":30.254,"lo1":-89.0895,"lo2":-89.0444,"dy":0.0017,"dx":0.0017,"nx":28,"ny":28,"refTime":"2025-04-28T21:00:00:Z","depth":0,"parameterNumber":2,"parameterNumberName":"U-component_of_WINDS"},"data":[0,0,0,0,0,0,0,0,0,0,0,0,0,0,0,0,0,0,0,0,0,0,0,0,0,0,0,0,0,0,0,0,0,0,0,0,0,0,0,0,0,0,0,0,0,0,0,0,0,0,0,0,0,0,0,0,0,0,-1.7183,-1.7184,0,-1.7242,-1.7243,-1.7244,-1.7253,-1.7252,-1.7252,-1.7251,-1.7311,-1.7313,-1.7315,0,0,0,0,0,0,0,0,0,0,0,0,0,-1.7078,-1.708,-1.7183,-1.7184,-1.7185,-1.7242,-1.7243,-1.7244,-1.7253,-1.7252,-1.7251,-1.7251,-1.7311,-1.7313,-1.7316,0,0,0,0,0,0,0,0,0,0,0,0,0,-1.7129,-1.708,-1.7183,-1.7196,-1.7198,-1.7242,-1.7243,-1.7244,-1.7253,-1.7252,-1.7251,-1.7251,-1.731,-1.7313,-1.7316,-1.7351,0,0,-1.7326,-1.7327,0,0,0,0,0,0,0,0,-1.7126,-1.7133,-1.7193,-1.7195,-1.7197,-1.7239,-1.7228,-1.728,-1.7253,-1.7232,-1.7251,-1.725,-1.7288,-1.7293,-1.7306,-1.7354,-1.7357,-1.7326,-1.7328,-1.7329,-1.733,0,0,0,0,0,0,0,-1.7122,-1.713,-1.7207,-1.7194,-1.7197,-1.7199,-1.7205,-1.7238,-1.7264,-1.7234,-1.7235,-1.7241,-1.7289,-1.7303,-1.7307,-1.7358,-1.7326,-1.7329,-1.7331,-1.7332,-1.7438,-1.7439,0,0,0,0,0,0,-1.7116,-1.7127,-1.7205,-1.7208,-1.7159,-1.7201,-1.7209,-1.7227,-1.7263,-1.7268,-1.7242,-1.7242,-1.7298,-1.7304,-1.7309,-1.7353,-1.7329,-1.7332,-1.7334,-1.7437,-1.7438,-1.744,0,0,0,0,0,0,-1.7114,-1.7123,-1.7202,-1.7168,-1.7178,-1.7204,-1.7224,-1.7228,-1.7242,-1.727,-1.7274,-1.7251,-1.7297,-1.7305,-1.7341,-1.7355,-1.7333,-1.7336,-1.7436,-1.7438,-1.7439,-1.7441,0,0,0,0,0,0,-1.7111,-1.7122,-1.7136,-1.7168,-1.718,-1.7233,-1.7225,-1.723,-1.7247,-1.7247,-1.728,-1.7284,-1.7297,-1.7336,-1.7344,-1.7359,-1.7339,-1.7435,-1.7437,-1.7439,-1.744,-1.7442,-1.7444,0,0,0,0,0,-1.7107,-1.7134,-1.7137,-1.7146,-1.7198,-1.7234,-1.724,-1.7255,-1.7249,-1.7262,-1.728,-1.7283,-1.7353,-1.734,-1.7349,-1.7365,-1.7434,-1.7436,-1.7438,-1.7439,-1.7442,-1.7444,0,0,0,0,0,0,-1.7103,-1.7139,-1.7142,-1.718,-1.7204,-1.7235,-1.7253,-1.7258,-1.7284,-1.7283,-1.73,-1.7307,-1.7342,-1.7357,-1.7342,-1.7401,-1.7393,-1.7397,-1.739,-1.7393,-1.7395,-1.7391,-1.7341,0,0,0,0,0,-1.7106,-1.7133,-1.7162,-1.7193,-1.7205,-1.7227,-1.7243,-1.7252,-1.7278,-1.7288,-1.7308,-1.7333,-1.736,-1.7377,-1.7404,-1.7442,-1.7449,-1.7458,-1.746,-1.7462,-1.7465,-1.7486,-1.7491,-1.7446,-1.7446,-1.7446,0,0,-1.7114,-1.7136,-1.7152,-1.7193,-1.7212,-1.7239,-1.7235,-1.7264,-1.7284,-1.7292,-1.7327,-1.7343,-1.7371,-1.7409,-1.7426,-1.7422,-1.7479,-1.7465,-1.7466,-1.7468,-1.7489,-1.7493,-1.7497,-1.7448,-1.7448,-1.7447,0,0,-1.7141,-1.7161,-1.7188,-1.7208,-1.7238,-1.7252,-1.7259,-1.729,-1.7301,-1.7337,-1.7343,-1.7367,-1.7414,-1.7434,-1.745,-1.7485,-1.7489,-1.7494,-1.7506,-1.7526,-1.753,-1.7533,-1.7545,-1.7549,-1.7497,-1.7497,-1.7497,0,-1.7146,-1.7186,-1.7202,-1.723,-1.7248,-1.7257,-1.7285,-1.7304,-1.734,-1.7353,-1.7348,-1.7407,-1.7427,-1.7469,-1.7477,-1.749,-1.7498,-1.749,-1.7528,-1.7531,-1.7535,-1.7546,-1.7551,-1.7497,-1.7497,-1.7497,-1.7497,0,-1.7191,-1.722,-1.7238,-1.7274,-1.7294,-1.7322,-1.7342,-1.736,-1.7368,-1.7383,-1.7419,-1.7443,-1.7475,-1.7486,-1.7493,-1.7529,-1.7526,-1.7525,-1.7516,-1.7539,-1.755,-1.7555,-1.7498,-1.7498,-1.7497,-1.7497,0,0,-1.7217,-1.7261,-1.7267,-1.7283,-1.7317,-1.7339,-1.7368,-1.7399,-1.7414,-1.744,-1.7464,-1.7504,-1.7503,-1.7521,-1.7531,-1.7549,-1.7576,-1.7546,-1.7547,-1.755,-1.7616,-1.7616,-1.7621,-1.7578,-1.7579,-1.758,-1.7613,0,-1.7247,-1.7299,-1.7313,-1.7357,-1.7383,-1.7392,-1.7417,-1.744,-1.7455,-1.748,-1.7496,-1.7524,-1.7521,-1.7532,-1.755,-1.7568,-1.7589,-1.7566,-1.7601,-1.7602,-1.7593,-1.7627,-1.7628,-1.7658,-1.7618,-1.7619,-1.7619,0,-1.729,-1.7316,-1.7362,-1.7392,-1.7404,-1.7426,-1.7456,-1.7479,-1.7506,-1.7515,-1.7536,-1.7545,-1.7575,-1.7565,-1.7607,-1.7592,-1.7607,-1.7618,-1.762,-1.7623,-1.7612,-1.7631,-1.7668,-1.7672,-1.7627,-1.7626,-1.7625,0,-1.7303,-1.735,-1.7383,-1.7397,-1.7433,-1.7449,-1.7465,-1.7491,-1.7508,-1.7535,-1.7546,-1.7576,-1.7592,-1.7614,-1.7631,-1.7622,-1.7671,-1.7663,-1.768,-1.7679,-1.7689,-1.7688,-1.7728,-1.77,-1.77,-1.77,-1.7699,0,-1.7336,-1.7363,-1.739,-1.741,-1.7442,-1.7459,-1.7489,-1.7505,-1.7528,-1.7552,-1.7562,-1.7584,-1.7605,-1.763,-1.7643,-1.7675,-1.7683,-1.7691,-1.7694,-1.769,-1.7689,-1.77,-1.7698,-1.7701,-1.77,-1.77,-1.77,0,-1.7356,-1.7375,-1.7412,-1.7443,-1.7452,-1.7473,-1.75,-1.7521,-1.7536,-1.7566,-1.7574,-1.7599,-1.7628,-1.7647,-1.7685,-1.7694,-1.773,-1.7732,-1.772,-1.7722,-1.7737,-1.7736,-1.7786,-1.7793,-1.776,-1.776,-1.776,0,-1.7375,-1.7397,-1.743,-1.7447,-1.7463,-1.749,-1.7508,-1.7526,-1.7545,-1.7577,-1.7593,-1.7624,-1.7649,-1.7696,-1.7717,-1.7746,-1.775,-1.7765,-1.7754,-1.7749,-1.7749,-1.7748,-1.775,-1.7767,-1.7767,-1.7767,-1.7767,0,-1.7408,-1.7416,-1.7442,-1.7471,-1.7493,-1.7517,-1.7541,-1.7554,-1.7576,-1.7596,-1.7627,-1.7646,-1.7685,-1.7715,-1.7746,-1.7763,-1.7769,-1.7771,-1.7776,-1.7772,-1.7764,-1.7768,-1.7725,-1.777,-1.7769,-1.7769,-1.7769,-1.7769,-1.7428,-1.7447,-1.7474,-1.7503,-1.7523,-1.7545,-1.7565,-1.7583,-1.7609,-1.7642,-1.7651,-1.7683,-1.771,-1.7752,-1.7769,-1.7794,-1.7792,-1.78,-1.7802,-1.7803,-1.7803,-1.7761,-1.78,-1.78,-1.78,-1.78,-1.78,0,-1.746,-1.7478,-1.7504,-1.7537,-1.756,-1.7564,-1.7591,-1.7609,-1.7637,-1.7661,-1.7686,-1.7721,-1.7751,-1.7774,-1.7804,-1.782,-1.7824,-1.7827,-1.7826,-1.783,-1.7804,-1.7796,-1.7824,-1.7824,-1.7824,-1.7824,-1.7824,-1.7824,-1.748,-1.7513,-1.7525,-1.7567,-1.7585,-1.7616,-1.7631,-1.7652,-1.7671,-1.771,-1.7734,-1.775,-1.7774,-1.7806,-1.7833,-1.7839,-1.7849,-1.7853,-1.7859,-1.7834,-1.7832,-1.7829,-1.7822,-1.7855,-1.7855,-1.7883,-1.7883,-1.7883]},{"header":{"parameterUnit":"m.s-1","parameterCategory":1,"la1":30.2991,"la2":30.254,"lo1":-89.0895,"lo2":-89.0444,"dy":0.0017,"dx":0.0017,"nx":28,"ny":28,"refTime":"2025-04-28T21:00:00:Z","depth":0,"parameterNumber":3,"parameterNumberName":"V-component_of_WINDS"},"data":[0,0,0,0,0,0,0,0,0,0,0,0,0,0,0,0,0,0,0,0,0,0,0,0,0,0,0,0,0,0,0,0,0,0,0,0,0,0,0,0,0,0,0,0,0,0,0,0,0,0,0,0,0,0,0,0,0,0,3.6078,3.6079,0,3.613,3.613,3.6131,3.6093,3.6091,3.609,3.6088,3.6138,3.6141,3.6143,0,0,0,0,0,0,0,0,0,0,0,0,0,3.5944,3.5946,3.6078,3.6079,3.6079,3.6129,3.613,3.6131,3.6093,3.6091,3.6089,3.6087,3.6137,3.614,3.6144,0,0,0,0,0,0,0,0,0,0,0,0,0,3.5999,3.5947,3.6078,3.6067,3.6066,3.6129,3.613,3.6131,3.6094,3.6091,3.6089,3.6086,3.6136,3.614,3.6144,3.622,0,0,3.6157,3.6159,0,0,0,0,0,0,0,0,3.5996,3.6004,3.6068,3.6067,3.6067,3.6102,3.6101,3.6161,3.6094,3.6083,3.6088,3.6085,3.6128,3.6133,3.6148,3.6223,3.6225,3.6158,3.616,3.6162,3.6163,0,0,0,0,0,0,0,3.5992,3.6002,3.6098,3.6069,3.6068,3.6058,3.6063,3.6112,3.6119,3.6084,3.6081,3.6088,3.6127,3.6144,3.6148,3.6225,3.6157,3.6161,3.6164,3.6166,3.6365,3.6368,0,0,0,0,0,0,3.599,3.5999,3.6097,3.61,3.6025,3.6062,3.6068,3.6093,3.6118,3.6119,3.609,3.6086,3.6137,3.6143,3.615,3.6241,3.6162,3.6166,3.6169,3.6362,3.6366,3.6369,0,0,0,0,0,0,3.5987,3.5999,3.6095,3.6049,3.606,3.6067,3.6096,3.6096,3.6112,3.6123,3.6123,3.6106,3.6136,3.6144,3.6203,3.6242,3.6168,3.6172,3.6359,3.6363,3.6367,3.6423,0,0,0,0,0,0,3.5984,3.5998,3.6028,3.605,3.6063,3.6148,3.6098,3.6099,3.612,3.6115,3.6138,3.6139,3.6134,3.6197,3.6208,3.6246,3.6175,3.6356,3.6361,3.6366,3.6417,3.6428,3.6437,0,0,0,0,0,3.5979,3.6041,3.603,3.6042,3.61,3.615,3.6158,3.6152,3.6123,3.6153,3.616,3.6138,3.6236,3.6203,3.6215,3.6256,3.6353,3.636,3.6365,3.6413,3.6426,3.6437,0,0,0,0,0,0,3.6023,3.6044,3.6032,3.6103,3.6125,3.6144,3.6181,3.6166,3.6196,3.619,3.6181,3.6186,3.6248,3.6258,3.6221,3.633,3.629,3.6299,3.6322,3.6335,3.6344,3.6341,3.6179,0,0,0,0,0,3.6041,3.6081,3.6097,3.6158,3.617,3.6174,3.6195,3.6189,3.6211,3.622,3.6231,3.6253,3.6288,3.6312,3.6345,3.6419,3.6422,3.6452,3.6462,3.647,3.6478,3.6517,3.653,3.6389,3.6389,3.6389,0,0,3.6079,3.6095,3.6121,3.6167,3.6184,3.6224,3.6182,3.6227,3.6256,3.6227,3.6284,3.6293,3.6316,3.6383,3.6412,3.6392,3.6518,3.6478,3.6484,3.6488,3.6524,3.6538,3.655,3.6393,3.6392,3.6391,0,0,3.6168,3.6185,3.6238,3.6255,3.6281,3.6283,3.6296,3.6317,3.6322,3.6379,3.6358,3.6393,3.6454,3.6472,3.6489,3.6585,3.6566,3.6596,3.6648,3.6686,3.6697,3.6707,3.674,3.6753,3.6603,3.6603,3.6603,0,3.6211,3.6273,3.6266,3.6313,3.6334,3.631,3.6363,3.638,3.6415,3.6429,3.6407,3.6483,3.6498,3.6568,3.6591,3.6606,3.6619,3.6593,3.6696,3.6706,3.6715,3.6747,3.676,3.6607,3.6606,3.6606,3.6606,0,3.6324,3.6367,3.6406,3.6442,3.6467,3.6517,3.6517,3.6543,3.6534,3.6539,3.6597,3.6613,3.6649,3.6665,3.6657,3.6734,3.6721,3.6697,3.6656,3.6732,3.6762,3.6774,3.6612,3.661,3.6609,3.6609,0,0,3.6442,3.6474,3.6489,3.6505,3.6532,3.6564,3.6612,3.6648,3.667,3.6695,3.6735,3.6788,3.6766,3.6785,3.6779,3.6812,3.6887,3.6785,3.6785,3.6803,3.6972,3.699,3.7004,3.6875,3.6877,3.6879,3.697,0,3.6533,3.6618,3.6613,3.6692,3.6731,3.6709,3.6751,3.6771,3.6776,3.6809,3.6814,3.6852,3.6821,3.6832,3.6865,3.6871,3.6921,3.6864,3.691,3.6912,3.6905,3.702,3.7038,3.7124,3.6982,3.6984,3.6985,0,3.665,3.668,3.6763,3.6784,3.68,3.6838,3.6871,3.6903,3.6925,3.6926,3.6948,3.6936,3.6984,3.6942,3.7007,3.6968,3.6987,3.6993,3.6996,3.7,3.6953,3.7026,3.7151,3.7163,3.7004,3.7002,3.7001,0,3.6727,3.6788,3.6846,3.686,3.6886,3.6913,3.6925,3.6945,3.6967,3.6995,3.7009,3.7042,3.706,3.7086,3.7083,3.7053,3.7148,3.7106,3.715,3.715,3.7171,3.717,3.73,3.7184,3.7183,3.7183,3.7183,0,3.6829,3.688,3.6881,3.6917,3.6974,3.6968,3.7024,3.7033,3.7051,3.7087,3.7069,3.7103,3.7097,3.7131,3.7128,3.7182,3.719,3.7192,3.7191,3.7193,3.7193,3.7205,3.7199,3.7186,3.7186,3.7185,3.7184,0,3.6925,3.6928,3.6989,3.7009,3.7015,3.7056,3.7073,3.7106,3.7109,3.7155,3.7165,3.7171,3.7209,3.7209,3.7253,3.7251,3.7317,3.7309,3.731,3.7308,3.7351,3.7347,3.7493,3.7512,3.7384,3.7385,3.7386,0,3.6989,3.7029,3.7053,3.7076,3.709,3.7128,3.715,3.7146,3.717,3.7198,3.7228,3.7265,3.7294,3.7357,3.7364,3.7397,3.739,3.7439,3.7395,3.7396,3.739,3.7388,3.7391,3.7447,3.7449,3.745,3.7451,0,3.7103,3.7103,3.7136,3.7171,3.7198,3.7225,3.7249,3.7269,3.7267,3.7295,3.7335,3.7358,3.7403,3.7439,3.7471,3.7482,3.7466,3.7465,3.7477,3.748,3.7479,3.7479,3.7333,3.7461,3.746,3.746,3.7459,3.7459,3.7185,3.7219,3.7242,3.728,3.7298,3.7321,3.7353,3.7361,3.7394,3.7431,3.7426,3.7471,3.7491,3.7533,3.7547,3.758,3.7563,3.758,3.7584,3.7589,3.7593,3.7474,3.7586,3.7586,3.7586,3.7585,3.7585,0,3.7298,3.7312,3.7347,3.7382,3.7411,3.7395,3.7421,3.7446,3.7486,3.7507,3.7537,3.7582,3.7618,3.7628,3.7662,3.7687,3.7681,3.7696,3.7694,3.7697,3.7607,3.7593,3.7701,3.7701,3.7701,3.7701,3.7701,3.7701,3.736,3.7417,3.7419,3.7484,3.7496,3.754,3.7557,3.7577,3.7594,3.7646,3.7676,3.7683,3.7699,3.7735,3.7766,3.7768,3.7781,3.78,3.7799,3.7715,3.7703,3.7692,3.7679,3.7803,3.7803,3.7886,3.7887,3.7887]}]]